SCP
0 0 0 0 0 0 0 0 0 0 0 0 1 1 1 0 0 0 0 0 0 0 0 0 0 0 0 0 0 0 0 0 1 0 0 0 0 0 0 0 0 0 0 0
0 0 0 0 0 0 0 0 0 0 0 1 1 1 0 0 0 0 0 0 0 0 0 0 0 0 0 0 0 0 0 0 0 0 0 0 0 0 0 0 0 0 0 0
0 0 0 0 0 0 0 0 0 0 0 0 0 0 0 0 0 0 0 0 0 0 0 0 0 0 0 0 0 0 0 0 0 0 0 0 0 0 0 0 0 0 0 0
0 0 0 0 0 0 0 0 0 0 0 0 0 0 0 0 0 0 0 0 0 0 0 0 0 0 0 0 0 0 0 0 0 0 0 0 0 0 0 0 0 0 0 0
0 0 0 0 0 0 0 0 0 0 0 0 0 0 0 0 0 0 0 0 0 0 0 0 0 0 0 0 0 0 0 0 0 0 0 0 0 0 0 0 0 0 0 0
0 0 0 0 0 0 0 0 0 0 0 0 0 0 0 0 0 0 0 0 0 0 0 0 0 0 0 0 0 0 0 0 0 0 0 0 0 0 0 0 0 0 0 0
0 0 0 0 0 0 0 0 0 0 0 0 0 0 0 0 0 0 0 0 0 0 0 0 0 0 0 0 0 0 0 0 0 0 0 0 0 0 0 0 0 0 0 0
0 0 0 0 0 0 0 0 0 0 0 0 0 0 0 0 0 0 0 0 0 0 0 0 0 0 0 0 0 0 0 0 0 0 0 0 0 0 0 0 0 0 0 0
0 0 0 0 0 0 0 0 0 0 0 0 0 0 0 0 0 0 0 0 0 0 0 0 0 0 0 0 0 0 0 0 0 0 0 0 0 0 0 0 0 0 0 0
0 0 0 0 0 0 0 0 0 0 0 0 0 0 0 0 0 0 0 0 0 0 0 0 0 0 0 0 0 0 0 0 0 0 0 0 0 0 0 0 0 0 0 0
0 0 0 0 0 0 0 0 0 0 0 0 0 0 0 0 0 0 0 0 0 0 0 0 0 0 0 0 0 0 0 0 0 0 0 0 0 0 0 0 0 0 0 0
0 0 0 0 0 0 0 0 0 0 0 0 0 0 0 0 0 0 0 0 0 0 0 0 0 0 0 0 0 0 0 0 0 0 0 0 0 0 0 0 0 0 0 0
0 0 0 0 0 0 0 0 0 0 0 0 0 0 0 0 0 0 0 0 0 0 0 0 0 0 0 0 0 0 0 0 0 0 0 0 0 0 0 0 0 0 0 -0
0 0 0 0 0 0 0 0 0 0 0 0 0 0 0 0 0 0 0 0 0 0 0 0 0 0 0 0 0 0 0 0 0 0 0 0 0 0 0 0 0 0 0 0
0 0 0 0 0 0 0 0 0 0 0 0 0 0 0 0 0 0 0 0 0 0 0 0 0 0 0 0 0 0 0 0 0 0 0 0 0 0 0 0 0 0 0 0
0 0 0 0 0 0 0 0 0 0 0 0 0 0 0 0 0 0 0 0 0 0 0 0 0 0 0 0 0 0 0 0 0 0 0 0 0 0 0 0 0 0 0 0
0 0 0 0 0 0 0 0 0 0 0 0 0 0 0 0 0 0 0 0 0 0 0 0 0 0 0 0 0 0 0 0 0 0 0 0 0 0 0 0 0 0 0 0
0 0 0 0 0 0 0 0 0 0 0 0 0 0 0 0 0 0 0 0 0 0 0 0 0 0 0 0 0 0 0 0 0 0 0 0 0 0 0 0 0 0 0 0
0 0 0 0 0 0 0 0 0 0 0 0 0 0 0 0 0 1 1 0 0 0 0 0 0 0 0 0 0 0 0 0 0 0 0 0 0 0 0 0 0 0 0 0
0 0 0 0 0 0 0 0 0 0 0 0 0 0 0 0 1 1 1 1 0 0 0 0 0 0 0 0 0 0 0 0 0 0 0 0 0 0 0 0 0 0 0 0
0 0 0 0 0 0 0 0 0 0 0 0 0 0 0 0 0 1 1 1 1 1 0 0 0 0 0 0 0 0 0 0 0 0 0 0 0 0 0 0 0 0 0 0
0 0 0 0 0 0 0 0 0 0 0 0 0 0 0 0 0 0 1 0 0 0 0 0 0 0 0 0 0 0 0 0 0 0 0 0 0 0 0 0 0 0 0 0
0 0 0 0 0 0 0 0 0 0 0 0 0 1 0 0 0 0 0 0 0 0 0 0 0 0 0 0 0 0 0 0 0 0 0 0 0 0 0 0 0 0 0 0
0 0 0 0 0 0 0 0 0 0 0 0 0 1 1 0 0 0 0 0 0 0 0 0 0 0 0 0 0 0 0 0 0 0 0 0 0 0 0 0 0 0 0 0
0 0 0 0 0 0 0 0 0 0 0 0 0 0 0 0 0 0 0 0 0 0 0 0 0 0 0 0 0 0 0 0 0 0 0 0 0 0 0 0 0 0 0 0
0 0 0 0 1 1 1 0 0 0 0 0 0 0 0 0 0 0 0 0 0 0 0 0 0 0 0 0 0 0 0 0 0 0 0 0 0 0 0 0 0 0 0 0
0 0 0 0 1 1 0 0 0 0 0 0 0 0 0 0 0 0 0 0 0 0 0 0 0 0 0 0 0 0 0 0 0 0 0 0 0 0 0 0 0 0 0 0
Wind_Speed
14 17 17 16 15 14 12 11 10 12 14 15 13 6 6 4 4 5 5 4 3 2 1 1 2 3 4 4 4 3 2 2 3 2 3 2 3 3 3 4 5 5 6 7
15 16 15 14 13 12 12 11 10 11 12 8 4 4 7 7 6 5 4 3 1 1 1 1 3 3 4 3 3 3 3 3 4 4 3 2 2 3 3 3 4 4 6 7
14 14 13 11 9 9 11 11 11 11 8 4 2 3 5 6 6 5 4 4 3 1 1 2 4 4 5 2 2 2 3 4 5 5 4 4 4 6 6 6 7 6 6 7
13 13 12 6 4 7 9 9 7 7 4 2 2 3 4 5 4 4 4 3 3 1 1 3 4 5 5 3 2 1 3 4 5 5 5 5 6 7 7 6 6 6 5 6
9 11 11 9 5 3 7 11 7 3 2 1 2 4 6 8 7 7 6 4 3 2 2 3 4 5 4 3 2 2 3 4 4 4 4 4 5 6 5 5 6 5 5 6
11 13 14 10 3 2 7 8 4 1 2 2 4 5 2 7 8 6 4 2 3 3 3 3 3 3 2 1 1 3 4 4 4 4 3 2 3 3 3 4 4 4 6 7
14 14 11 4 6 2 7 2 2 4 5 5 4 2 5 6 6 4 4 4 4 4 2 2 1 1 1 3 4 4 4 3 4 4 3 1 2 2 2 3 4 4 6 7
11 13 5 6 2 5 4 0 5 8 8 6 2 5 5 6 6 6 6 6 5 4 3 2 2 2 3 4 4 4 4 4 4 4 5 4 2 3 3 3 3 4 5 6
8 7 6 7 6 5 6 6 7 8 6 3 4 6 6 6 6 6 5 5 4 4 4 4 4 3 4 5 4 4 4 4 4 5 5 5 5 6 5 4 3 4 4 5
10 9 9 9 8 7 8 8 7 8 6 5 6 7 6 6 5 5 4 3 3 4 5 5 5 4 5 6 5 5 5 4 4 4 5 5 4 5 5 4 4 4 4 4
13 11 12 13 14 11 8 8 8 9 8 6 6 6 7 6 5 5 5 4 4 4 4 5 5 5 6 6 5 5 5 5 4 4 4 4 4 4 4 4 4 4 3 3
14 11 10 9 9 9 8 9 9 9 8 8 7 7 8 7 7 6 7 6 6 5 5 6 6 7 7 7 6 5 5 5 5 4 4 4 5 5 3 3 5 4 2 2
15 13 14 13 12 13 10 10 11 10 10 9 9 8 8 8 8 8 8 8 7 7 7 7 8 8 8 8 7 7 6 5 4 5 6 6 6 7 6 5 5 6 7 6
13 13 15 16 14 12 11 10 12 13 12 11 10 9 9 9 9 10 9 9 8 8 9 9 9 9 8 7 5 5 6 8 6 5 6 7 7 7 8 8 7 7 8 10
14 14 15 14 13 12 12 10 11 13 13 13 12 11 11 10 11 10 10 10 9 9 9 9 9 9 8 8 7 6 6 5 5 4 5 4 5 6 5 5 3 5 8 7
9 10 13 12 11 11 12 13 13 13 14 14 13 13 13 12 12 12 11 11 11 11 10 9 8 8 8 7 7 6 4 2 3 5 5 4 5 4 2 2 2 1 2 7
8 9 10 9 10 10 11 13 14 14 15 15 15 14 14 14 13 13 12 12 10 10 10 9 9 9 9 8 8 8 8 8 7 6 6 6 6 4 2 2 2 2 1 6
7 7 8 8 9 10 11 13 13 14 14 15 17 17 16 15 14 13 13 13 12 11 11 11 10 10 9 9 7 8 6 8 8 8 8 6 5 4 4 4 5 4 3 7
3 3 5 7 8 8 9 12 14 13 14 15 16 16 15 15 14 12 13 13 13 13 12 12 15 13 10 10 10 6 8 7 9 8 7 5 4 5 5 6 5 4 4 3
2 5 7 9 10 10 11 11 13 13 12 14 15 15 15 16 15 14 13 13 12 11 11 12 14 13 13 11 12 10 10 10 9 9 9 8 8 8 8 8 6 4 3 4
4 6 8 10 11 12 13 15 13 12 12 13 14 15 15 15 16 14 13 14 11 11 12 15 12 12 12 11 14 12 10 10 10 10 9 9 9 9 8 7 6 5 4 5
8 9 10 11 12 12 13 13 15 15 12 12 14 15 14 15 16 14 13 11 10 14 14 12 12 14 14 14 12 12 11 11 10 9 9 9 9 8 7 7 6 5 5 6
9 9 10 12 13 14 15 15 16 15 13 10 10 12 14 13 14 14 13 11 10 13 12 12 12 15 17 13 11 12 12 12 11 10 9 9 9 8 6 6 4 3 5 6
13 12 11 12 13 15 16 16 16 14 15 13 9 9 12 12 12 13 10 12 17 17 13 11 15 18 18 12 11 12 12 11 11 11 10 10 8 6 5 5 4 4 6 7
14 14 14 15 15 14 14 14 14 14 15 12 12 10 10 11 12 12 11 11 14 16 14 14 18 20 16 12 12 12 11 11 11 11 10 8 6 6 6 5 4 5 6 5
15 14 13 12 11 10 11 11 9 7 7 10 10 7 6 6 8 9 9 12 13 14 13 9 12 15 14 13 13 13 11 10 11 10 9 7 7 7 6 5 7 6 5 4
16 12 8 9 10 10 10 9 8 8 5 3 6 9 7 3 5 7 10 9 9 9 10 9 10 12 13 12 12 11 9 8 8 9 9 8 7 6 5 6 6 5 3 3
Wind_Direction
297 298 297 302 307 304 292 284 279 286 287 295 299 247 189 198 173 156 150 150 137 130 105 322 311 322 317 325 341 341 339 10 28 44 96 73 48 48 36 22 46 36 40 35
291 292 297 298 300 303 303 304 300 291 296 310 291 179 171 196 207 197 189 190 182 36 46 356 318 302 310 324 355 2 19 31 31 32 59 63 67 64 58 51 52 52 60 56
293 298 303 296 308 309 308 311 312 308 315 305 225 194 206 214 219 215 201 186 183 195 10 329 299 291 291 300 340 10 46 54 48 46 50 33 40 51 40 39 38 37 61 74
283 289 287 294 314 300 301 301 299 293 284 202 205 202 214 216 210 194 198 200 178 203 263 276 268 267 270 253 252 8 43 44 41 44 47 54 59 53 48 50 47 45 56 75
287 287 290 301 301 287 308 303 309 280 263 164 168 221 225 209 201 200 200 189 181 214 251 250 243 250 257 258 280 8 35 45 47 45 51 59 70 62 48 45 45 47 54 56
268 283 291 299 113 51 301 282 60 36 301 264 240 255 282 180 183 188 175 187 233 243 246 233 220 243 254 245 64 63 67 68 62 54 57 78 97 85 60 49 43 48 57 52
258 276 288 61 102 277 287 23 52 303 300 275 264 45 110 136 160 170 187 199 229 240 229 214 186 217 128 92 80 74 73 82 72 48 32 57 165 145 94 67 55 62 75 69
275 272 291 66 306 304 331 289 274 287 290 284 190 140 164 167 164 183 196 203 214 210 202 186 154 144 111 94 85 80 77 79 77 51 32 40 82 139 115 100 84 79 85 85
290 307 333 293 289 293 285 274 277 278 277 254 205 197 192 164 172 195 202 205 197 194 191 180 184 182 130 119 110 101 94 87 79 68 50 48 75 99 105 110 108 92 90 89
255 265 279 291 286 252 246 251 255 259 247 227 213 204 180 168 181 191 201 208 204 205 192 183 184 167 141 137 139 137 128 114 99 84 71 57 60 91 102 102 100 98 98 99
285 272 270 271 271 257 242 234 239 247 232 213 215 201 176 177 182 178 179 190 195 194 184 172 169 161 153 149 149 139 139 142 137 124 109 104 90 81 92 86 96 106 106 111
280 287 278 276 291 280 235 219 226 241 231 206 202 200 186 177 168 171 177 179 190 189 171 155 159 161 153 154 161 163 167 172 176 174 162 152 142 136 83 122 138 132 143 152
274 283 290 285 276 275 251 211 205 216 228 218 201 199 187 172 164 176 179 183 189 184 169 160 158 157 159 167 170 172 179 190 198 179 171 179 179 173 172 188 214 227 227 232
276 280 281 281 274 274 269 228 202 204 209 213 205 197 189 176 173 183 184 183 186 179 166 168 169 169 172 172 174 177 185 190 209 193 189 190 191 200 188 180 186 202 217 225
259 262 266 267 257 248 255 249 217 205 203 201 199 195 193 183 180 186 188 182 181 182 179 180 181 177 183 185 191 208 219 204 205 209 213 197 194 213 196 178 185 184 163 177
261 275 281 278 274 257 245 243 229 215 206 196 197 196 194 188 184 187 193 192 187 192 190 190 189 187 195 201 201 213 210 184 219 225 215 200 228 237 194 157 208 248 143 151
259 268 282 291 289 281 262 255 237 217 211 202 198 198 195 194 190 189 193 197 195 198 195 195 197 197 201 201 212 228 214 184 197 239 243 217 208 210 212 239 256 247 95 114
228 244 264 278 282 286 283 273 254 225 214 208 201 200 199 197 197 194 193 195 196 202 204 200 198 199 206 205 207 240 241 178 186 219 235 226 210 207 222 230 238 237 163 158
240 276 295 299 302 299 288 279 271 247 221 212 206 201 198 198 197 195 192 195 198 202 202 205 204 199 205 210 202 212 251 239 200 205 227 209 200 226 242 250 250 245 255 225
2 346 332 326 322 317 308 296 280 263 240 217 206 200 198 197 195 197 195 200 205 208 199 199 199 202 209 203 202 211 220 237 238 221 214 218 216 220 229 237 240 238 242 263
324 318 315 315 318 319 316 313 307 283 253 229 208 200 198 196 196 196 200 207 202 199 203 199 199 202 206 203 195 215 223 223 228 233 229 225 227 228 229 226 225 222 236 258
338 326 315 309 305 305 307 307 306 303 284 244 216 203 199 196 196 196 198 207 206 198 203 211 206 206 204 201 202 212 223 232 233 230 228 230 233 235 232 221 219 230 245 254
300 301 300 300 300 297 294 294 296 300 297 275 229 206 201 198 199 200 203 200 212 210 206 214 213 194 186 194 208 212 220 227 231 234 234 234 234 231 224 210 206 247 270 265
299 296 290 288 289 289 287 286 286 289 291 290 265 219 201 196 197 200 200 202 206 211 214 216 204 180 177 195 210 218 218 218 221 227 232 234 234 222 191 176 194 249 268 266
290 286 283 281 281 279 279 279 280 280 279 275 268 249 215 203 200 198 200 205 204 201 211 209 192 181 186 203 213 219 221 219 219 220 222 223 210 186 165 168 215 255 260 248
287 285 284 281 281 279 277 275 272 272 283 294 288 268 230 204 196 194 198 207 205 204 212 205 188 190 199 207 216 221 221 216 211 214 217 198 182 168 167 195 238 248 246 242
283 279 278 280 283 281 280 279 275 266 249 254 305 313 308 264 209 204 206 209 208 205 209 207 185 189 203 211 217 218 216 216 214 207 196 182 168 164 182 214 235 237 232 239